• In Germany
  • List of Countries
  • For 7 days
  • Water Temperature
  • Satellite Maps
  • Weather Map
  • Weather Widgets
  • user-avatar
    Login

    Hourly Weather San Miguel de Tucumán

    Today, 20 November, Monday

    Time Temperature Precipitation Wind Pressure Humidity
    00:00 +23°C° 0 mm 2 mps 716 mmHg 48%
    01:00 +23°C° 0 mm 2 mps 715 mmHg 49%
    02:00 +23°C° 0 mm 2 mps 715 mmHg 50%
    03:00 +21°C° 0 mm 2 mps 715 mmHg 50%
    04:00 +21°C° 0 mm 2 mps 714 mmHg 51%
    05:00 +20°C° 0 mm 2 mps 714 mmHg 51%
    06:00 +23°C° 0 mm 2 mps 715 mmHg 47%
    07:00 +25°C° 0 mm 3 mps 715 mmHg 43%
    08:00 +27°C° 0 mm 3 mps 716 mmHg 38%
    09:00 +29°C° 0 mm 3 mps 716 mmHg 34%
    10:00 +31°C° 0 mm 3 mps 716 mmHg 31%
    11:00 +34°C° 0 mm 4 mps 716 mmHg 27%
    12:00 +35°C° 0 mm 4 mps 715 mmHg 26%
    13:00 +36°C° 0 mm 4 mps 715 mmHg 25%
    14:00 +37°C° 0 mm 4 mps 714 mmHg 24%
    15:00 +36°C° 0 mm 4 mps 714 mmHg 25%
    16:00 +36°C° 0 mm 4 mps 713 mmHg 27%
    17:00 +35°C° 0 mm 4 mps 712 mmHg 28%
    18:00 +33°C° 0 mm 3 mps 713 mmHg 33%
    19:00 +30°C° 0 mm 2 mps 714 mmHg 38%
    20:00 +27°C° 0 mm 2 mps 714 mmHg 43%
    21:00 +27°C° 0 mm 2 mps 715 mmHg 45%
    22:00 +26°C° 0 mm 1 mps 716 mmHg 46%
    23:00 +26°C° 0 mm 1 mps 716 mmHg 47%

    Tomorrow, 21 November, Tuesday

    Time Temperature Precipitation Wind Pressure Humidity
    00:00 +25°C° 0.1 mm 1 mps 716 mmHg 48%
    01:00 +25°C° 0.1 mm 1 mps 716 mmHg 49%
    02:00 +24°C° 0.1 mm 1 mps 716 mmHg 49%
    03:00 +23°C° 0.3 mm 2 mps 717 mmHg 57%
    04:00 +21°C° 0.3 mm 3 mps 718 mmHg 64%
    05:00 +19°C° 0.3 mm 4 mps 719 mmHg 72%
    06:00 +20°C° 0.1 mm 4 mps 720 mmHg 73%
    07:00 +20°C° 0.1 mm 4 mps 721 mmHg 75%
    08:00 +20°C° 0.1 mm 4 mps 721 mmHg 76%
    09:00 +21°C° 0.1 mm 3 mps 722 mmHg 73%
    10:00 +22°C° 0.1 mm 3 mps 722 mmHg 70%
    11:00 +22°C° 0.1 mm 3 mps 722 mmHg 67%
    12:00 +25°C° 0 mm 3 mps 721 mmHg 62%
    13:00 +26°C° 0 mm 3 mps 721 mmHg 57%
    14:00 +27°C° 0 mm 2 mps 720 mmHg 52%
    15:00 +27°C° 0 mm 2 mps 720 mmHg 53%
    16:00 +27°C° 0 mm 2 mps 720 mmHg 53%
    17:00 +27°C° 0 mm 2 mps 719 mmHg 54%
    18:00 +25°C° 0 mm 2 mps 720 mmHg 59%
    19:00 +24°C° 0 mm 2 mps 720 mmHg 65%
    20:00 +21°C° 0 mm 2 mps 721 mmHg 71%
    21:00 +22°C° 0 mm 1 mps 722 mmHg 71%
    22:00 +22°C° 0 mm 1 mps 722 mmHg 71%
    23:00 +21°C° 0 mm 1 mps 722 mmHg 71%

    Day after tomorrow, 22 November, Wednesday

    Time Temperature Precipitation Wind Pressure Humidity
    00:00 +21°C° 0 mm 1 mps 722 mmHg 71%
    01:00 +21°C° 0 mm 1 mps 721 mmHg 71%
    02:00 +20°C° 0 mm 1 mps 721 mmHg 71%
    03:00 +20°C° 0 mm 1 mps 721 mmHg 72%
    04:00 +19°C° 0 mm 1 mps 721 mmHg 73%
    05:00 +19°C° 0 mm 1 mps 721 mmHg 74%
    06:00 +20°C° 0 mm 2 mps 722 mmHg 68%
    07:00 +21°C° 0 mm 2 mps 722 mmHg 61%
    08:00 +24°C° 0 mm 3 mps 723 mmHg 54%
    09:00 +26°C° 0 mm 3 mps 722 mmHg 49%
    10:00 +28°C° 0 mm 3 mps 722 mmHg 45%
    11:00 +30°C° 0 mm 3 mps 722 mmHg 40%
    12:00 +31°C° 0 mm 3 mps 721 mmHg 38%
    13:00 +32°C° 0 mm 4 mps 720 mmHg 35%
    14:00 +33°C° 0 mm 4 mps 719 mmHg 33%
    15:00 +33°C° 0 mm 4 mps 718 mmHg 33%
    16:00 +33°C° 0 mm 4 mps 717 mmHg 33%
    17:00 +31°C° 0 mm 3 mps 717 mmHg 33%
    18:00 +29°C° 0 mm 3 mps 717 mmHg 38%
    19:00 +27°C° 0 mm 2 mps 717 mmHg 42%
    20:00 +25°C° 0 mm 2 mps 717 mmHg 47%
    21:00 +25°C° 0 mm 2 mps 717 mmHg 48%
    22:00 +24°C° 0 mm 2 mps 718 mmHg 49%
    23:00 +24°C° 0 mm 2 mps 718 mmHg 50%

    23 November, Thursday

    Time Temperature Precipitation Wind Pressure Humidity
    00:00 +24°C° 0 mm 2 mps 717 mmHg 52%
    01:00 +23°C° 0 mm 2 mps 717 mmHg 54%
    02:00 +23°C° 0 mm 2 mps 716 mmHg 55%
    03:00 +23°C° 0 mm 2 mps 716 mmHg 56%
    04:00 +21°C° 0 mm 2 mps 716 mmHg 56%
    05:00 +21°C° 0 mm 2 mps 716 mmHg 56%
    06:00 +24°C° 0 mm 2 mps 716 mmHg 52%
    07:00 +26°C° 0 mm 2 mps 717 mmHg 48%
    08:00 +28°C° 0 mm 2 mps 717 mmHg 44%
    09:00 +30°C° 0 mm 3 mps 717 mmHg 40%
    10:00 +33°C° 0 mm 3 mps 717 mmHg 36%
    11:00 +36°C° 0 mm 3 mps 716 mmHg 32%
    12:00 +37°C° 0 mm 4 mps 716 mmHg 31%
    13:00 +38°C° 0 mm 4 mps 715 mmHg 29%
    14:00 +40°C° 0 mm 4 mps 714 mmHg 28%
    15:00 +38°C° 0 mm 4 mps 714 mmHg 29%
    16:00 +38°C° 0 mm 4 mps 713 mmHg 30%
    17:00 +37°C° 0 mm 4 mps 713 mmHg 31%
    18:00 +35°C° 0 mm 4 mps 713 mmHg 37%
    19:00 +33°C° 0 mm 3 mps 713 mmHg 42%
    20:00 +30°C° 0 mm 3 mps 714 mmHg 48%
    21:00 +29°C° 0 mm 2 mps 714 mmHg 50%
    22:00 +29°C° 0 mm 2 mps 715 mmHg 51%
    23:00 +28°C° 0 mm 2 mps 715 mmHg 53%

    24 November, Friday

    Time Temperature Precipitation Wind Pressure Humidity
    00:00 +27°C° 0 mm 2 mps 715 mmHg 54%
    01:00 +27°C° 0 mm 2 mps 714 mmHg 55%
    02:00 +26°C° 0 mm 2 mps 714 mmHg 56%
    03:00 +26°C° 0 mm 2 mps 714 mmHg 56%
    04:00 +25°C° 0 mm 2 mps 714 mmHg 56%
    05:00 +25°C° 0 mm 1 mps 714 mmHg 57%
    06:00 +27°C° 0 mm 2 mps 715 mmHg 53%
    07:00 +29°C° 0 mm 2 mps 716 mmHg 49%
    08:00 +31°C° 0 mm 2 mps 717 mmHg 45%
    09:00 +32°C° 0.1 mm 2 mps 716 mmHg 42%
    10:00 +35°C° 0.1 mm 2 mps 716 mmHg 39%
    11:00 +37°C° 0.1 mm 2 mps 716 mmHg 36%
    12:00 +37°C° 0.1 mm 2 mps 715 mmHg 36%
    13:00 +38°C° 0.1 mm 2 mps 715 mmHg 35%
    14:00 +38°C° 0.1 mm 2 mps 714 mmHg 35%
    15:00 +36°C° 0.5 mm 2 mps 713 mmHg 41%
    16:00 +35°C° 0.5 mm 3 mps 713 mmHg 47%
    17:00 +33°C° 0.5 mm 3 mps 713 mmHg 53%
    18:00 +30°C° 2.3 mm 2 mps 713 mmHg 63%
    19:00 +28°C° 2.3 mm 2 mps 714 mmHg 74%
    20:00 +26°C° 2.3 mm 1 mps 715 mmHg 84%
    21:00 +25°C° 1.3 mm 1 mps 716 mmHg 86%
    22:00 +25°C° 1.3 mm 1 mps 716 mmHg 88%
    23:00 +25°C° 1.3 mm 1 mps 717 mmHg 91%

    25 November, Saturday

    Time Temperature Precipitation Wind Pressure Humidity
    00:00 +24°C° 0.7 mm 1 mps 717 mmHg 90%
    01:00 +24°C° 0.7 mm 2 mps 717 mmHg 90%
    02:00 +24°C° 0.7 mm 2 mps 716 mmHg 89%
    03:00 +23°C° 0.3 mm 2 mps 717 mmHg 89%
    04:00 +21°C° 0.3 mm 3 mps 717 mmHg 89%
    05:00 +21°C° 0.3 mm 3 mps 718 mmHg 89%
    06:00 +21°C° 0.2 mm 3 mps 718 mmHg 86%
    07:00 +21°C° 0.2 mm 3 mps 719 mmHg 84%
    08:00 +21°C° 0.2 mm 3 mps 720 mmHg 82%
    09:00 +24°C° 0 mm 3 mps 720 mmHg 75%
    10:00 +26°C° 0 mm 2 mps 720 mmHg 69%
    11:00 +28°C° 0 mm 2 mps 719 mmHg 62%
    12:00 +29°C° 0 mm 2 mps 719 mmHg 57%
    13:00 +30°C° 0 mm 3 mps 718 mmHg 51%
    14:00 +31°C° 0 mm 3 mps 718 mmHg 46%
    15:00 +31°C° 0 mm 3 mps 718 mmHg 47%
    16:00 +31°C° 0 mm 3 mps 717 mmHg 49%
    17:00 +31°C° 0 mm 2 mps 717 mmHg 50%
    18:00 +29°C° 0 mm 2 mps 718 mmHg 57%
    19:00 +27°C° 0 mm 1 mps 718 mmHg 64%
    20:00 +26°C° 0 mm 1 mps 718 mmHg 71%
    21:00 +25°C° 0 mm 1 mps 719 mmHg 72%
    22:00 +25°C° 0 mm 1 mps 719 mmHg 74%
    23:00 +24°C° 0 mm 1 mps 719 mmHg 76%
    Show more